GW5178 Weather Reports


time (UTC)temp
C
wind
direction
speed
KPH
gust
KPH
rain 1hr
cm
rain 24hr
cm
rain mn
cm
humidity
%
barometer
mb
20260506084118 5 249 1.6 4.8 0.00 0.00 0.00 91 1015.8
20260506083615 5 249 1.6 4.8 0.00 0.00 0.00 91 1015.8
20260506083113 5 340 3.2 4.8 0.00 0.00 0.00 91 1016.0
20260506082609 5 11 1.6 4.8 0.00 0.00 0.00 91 1016.0
20260506082105 5 121 0.0 3.2 0.00 0.00 0.00 91 1015.8
20260506081603 5 201 0.0 3.2 0.00 0.00 0.00 91 1015.9
20260506081100 5 144 0.0 3.2 0.00 0.00 0.00 91 1015.9
20260506080558 5 152 3.2 3.2 0.00 0.00 0.00 90 1015.8
20260506073038 4 57 6.4 6.4 0.00 0.00 0.00 89 1015.8
20260506072535 5 230 3.2 4.8 0.00 0.00 0.00 89 1015.4
20260506072033 5 296 0.0 3.2 0.00 0.00 0.00 89 1015.4
20260506071531 5 319 4.8 4.8 0.00 0.00 0.00 90 1015.6
20260506071028 5 218 0.0 4.8 0.00 0.00 0.00 90 1015.3
20260506070525 5 261 3.2 4.8 0.00 0.00 0.00 90 1015.5
20260506062502 6 237 3.2 4.8 0.00 0.18 0.18 89 1014.7
20260506061959 6 269 3.2 3.2 0.00 0.18 0.18 89 1014.6
20260506061455 6 275 0.0 3.2 0.00 0.18 0.18 89 1014.7
20260506060953 6 248 3.2 4.8 0.00 0.18 0.18 88 1014.8
20260506060451 6 227 0.0 1.6 0.00 0.18 0.18 88 1014.8
20260506050920 8 190 4.8 6.4 0.00 0.18 0.18 86 1014.6
20260506050417 8 189 3.2 8.0 0.00 0.18 0.18 86 1014.5
20260506044908 8 182 3.2 6.4 0.00 0.18 0.18 85 1014.5
20260506044406 8 163 3.2 4.8 0.00 0.18 0.18 85 1014.6
20260506043902 8 141 3.2 4.8 0.00 0.18 0.18 84 1014.5
20260506043359 8 139 1.6 3.2 0.00 0.18 0.18 84 1014.5
20260506042858 8 154 0.0 4.8 0.00 0.18 0.18 83 1014.5
20260506042357 8 190 4.8 8.0 0.00 0.18 0.18 84 1014.4
20260506041855 8 196 6.4 6.4 0.00 0.18 0.18 84 1014.1
20260506041354 8 192 3.2 6.4 0.00 0.18 0.18 84 1014.1
20260506040849 9 196 4.8 9.7 0.00 0.18 0.18 83 1013.9
20260506040346 9 190 6.4 8.0 0.00 0.18 0.18 83 1013.5
20260506035842 9 201 4.8 8.0 0.00 0.18 0.18 83 1013.7
20260506035340 9 192 6.4 8.0 0.00 0.18 0.18 82 1013.3
20260506034837 9 211 4.8 6.4 0.00 0.18 0.18 83 1013.2
20260506034334 9 200 3.2 6.4 0.00 0.18 0.18 82 1013.3
20260506033831 9 190 3.2 6.4 0.00 0.18 0.18 82 1013.2
20260506033328 10 192 3.2 8.0 0.00 0.18 0.18 82 1013.1
20260506032825 10 197 4.8 6.4 0.00 0.18 0.18 81 1013.1
20260506032322 10 168 3.2 8.0 0.00 0.18 0.18 79 1012.7
20260506031819 10 205 3.2 4.8 0.00 0.18 0.18 80 1012.5
20260506031316 10 181 4.8 4.8 0.00 0.18 0.18 78 1012.5
20260506030813 10 233 8.0 9.7 0.00 0.18 0.18 77 1012.5
20260506030311 11 231 8.0 8.0 0.00 0.18 0.18 77 1012.5
20260506025808 11 232 6.4 8.0 0.00 0.18 0.18 76 1012.3
20260506025305 11 234 6.4 9.7 0.00 0.18 0.18 76 1012.4
20260506024802 11 221 6.4 14.5 0.00 0.18 0.18 77 1012.1
20260506024258 11 247 8.0 11.3 0.00 0.18 0.18 78 1012.4
20260506023754 11 237 8.0 14.5 0.00 0.18 0.18 77 1012.1
20260506023251 11 224 8.0 9.7 0.00 0.18 0.18 77 1012.1
20260506022748 11 225 8.0 11.3 0.00 0.18 0.18 76 1012.0
20260506022246 12 236 8.0 12.9 0.00 0.18 0.18 75 1011.8
20260506021744 12 216 9.7 12.9 0.00 0.18 0.18 73 1012.0
20260506021240 12 233 12.9 17.7 0.00 0.18 0.18 72 1012.0
20260506020737 12 202 8.0 16.1 0.00 0.18 0.18 71 1011.9
20260506020235 12 231 9.7 14.5 0.00 0.18 0.18 69 1011.9
20260506015732 12 228 11.3 12.9 0.00 0.18 0.18 69 1011.6
20260506015230 13 231 9.7 16.1 0.00 0.18 0.18 68 1011.8
20260506014726 13 221 11.3 20.9 0.00 0.18 0.18 67 1011.7
20260506014222 13 235 8.0 17.7 0.00 0.18 0.18 66 1011.6
20260506013720 13 228 12.9 16.1 0.00 0.18 0.18 66 1011.7
20260506013217 13 228 14.5 17.7 0.00 0.18 0.18 66 1011.6
20260506012713 13 228 20.9 24.1 0.00 0.18 0.18 65 1011.7
20260506012211 13 226 14.5 24.1 0.00 0.18 0.18 67 1011.6
20260506011708 13 237 11.3 24.1 0.00 0.18 0.18 66 1011.2
20260506011204 13 230 17.7 25.7 0.00 0.18 0.18 65 1011.3
20260506010702 14 252 14.5 22.5 0.00 0.18 0.18 64 1011.4
20260506010159 15 223 14.5 16.1 0.00 0.18 0.18 64 1011.2
20260506005656 14 227 14.5 19.3 0.00 0.18 0.18 64 1011.2
20260506005153 14 243 9.7 20.9 0.00 0.18 0.18 63 1011.3
20260506004649 14 227 9.7 24.1 0.00 0.18 0.18 63 1011.1
20260506004147 15 249 11.3 19.3 0.00 0.18 0.18 60 1011.2
20260506003643 15 233 14.5 20.9 0.00 0.18 0.18 60 1011.1
20260506003139 14 240 12.9 25.7 0.00 0.18 0.18 60 1011.1
20260506002635 15 234 12.9 17.7 0.00 0.18 0.18 60 1011.0
20260506002131 14 235 16.1 25.7 0.00 0.18 0.18 59 1011.1
20260506001627 15 225 14.5 22.5 0.00 0.18 0.18 58 1011.2
20260506001125 15 217 8.0 17.7 0.00 0.18 0.18 57 1011.3
20260506000622 15 199 8.0 12.9 0.00 0.18 0.18 54 1011.2
20260506000119 15 201 12.9 16.1 0.00 0.18 0.18 58 1011.4
20260505235617 14 225 12.9 17.7 0.00 0.18 0.18 63 1011.3
20260505235114 14 227 9.7 16.1 0.00 0.18 0.18 61 1011.3
20260505234611 13 219 8.0 14.5 0.00 0.18 0.18 64 1011.6
20260505234107 14 216 11.3 11.3 0.00 0.18 0.18 63 1011.6
20260505233605 14 233 9.7 22.5 0.00 0.18 0.18 67 1011.6
20260505233102 13 219 12.9 22.5 0.00 0.18 0.18 67 1011.0
20260505232600 12 212 3.2 14.5 0.00 0.18 0.18 70 1011.1
20260505232057 12 244 3.2 14.5 0.00 0.18 0.18 71 1011.3
20260505231554 12 238 6.4 19.3 0.00 0.18 0.18 73 1011.4
20260505231053 12 224 17.7 20.9 0.00 0.18 0.18 70 1011.1
20260505230550 12 240 11.3 27.4 0.00 0.18 0.18 71 1011.2
20260505230046 13 239 17.7 24.1 0.00 0.18 0.18 70 1011.1
20260505225543 13 240 14.5 20.9 0.00 0.18 0.18 69 1010.9
20260505225039 13 251 20.9 24.1 0.00 0.18 0.18 68 1011.0
20260505224536 13 244 14.5 24.1 0.00 0.18 0.18 69 1011.0
20260505224034 13 242 22.5 25.7 0.00 0.18 0.18 71 1011.3
20260505223531 13 238 14.5 20.9 0.00 0.18 0.18 71 1011.3
20260505223027 12 231 12.9 19.3 0.00 0.18 0.18 74 1010.9
20260505222523 12 256 12.9 17.7 0.00 0.18 0.18 73 1011.2
20260505222019 12 230 11.3 17.7 0.13 0.18 0.18 71 1011.4
20260505221517 11 229 6.4 19.3 0.13 0.18 0.18 75 1011.6
20260505221013 12 241 11.3 25.7 0.00 0.15 0.15 71 1011.2
20260505220510 12 249 14.5 22.5 0.00 0.15 0.15 72 1011.3
20260505220008 13 259 8.0 9.7 0.00 0.15 0.15 70 1011.3
20260505215506 11 264 6.4 14.5 0.00 0.15 0.15 78 1011.4
20260505215003 11 262 8.0 16.1 0.13 0.15 0.15 80 1011.4
20260505214502 11 247 9.7 16.1 0.13 0.15 0.15 78 1011.4
20260505213958 11 287 12.9 17.7 0.13 0.15 0.15 76 1011.7
20260505213456 12 307 6.4 12.9 0.13 0.13 0.13 71 1012.0
20260505212952 12 267 9.7 12.9 0.18 0.13 0.13 73 1011.9
20260505212449 11 303 12.9 16.1 0.43 0.10 0.10 72 1012.0
20260505211945 11 295 8.0 30.6 0.48 0.10 0.10 70 1012.0
20260505211443 13 328 16.1 22.5 0.23 0.05 0.05 69 1011.8
20260505210939 15 355 11.3 22.5 0.05 0.00 0.00 60 1011.3
20260505210436 16 255 11.3 24.1 0.00 0.00 0.00 47 1011.1
20260505205933 16 254 17.7 20.9 0.00 0.00 0.00 46 1010.9
20260505205432 16 248 11.3 16.1 0.00 0.00 0.00 44 1011.0
20260505204928 16 249 16.1 32.2 0.00 0.00 0.00 45 1010.9
20260505204426 16 223 12.9 32.2 0.00 0.00 0.00 45 1011.0
20260505203923 17 245 25.7 29.0 0.00 0.00 0.00 42 1010.9
20260505203419 17 233 11.3 32.2 0.00 0.00 0.00 42 1011.0
20260505202915 18 233 12.9 30.6 0.00 0.00 0.00 42 1011.0
20260505202412 18 245 19.3 25.7 0.00 0.00 0.00 41 1010.9
20260505201908 17 216 16.1 38.6 0.00 0.00 0.00 44 1011.2
20260505201406 17 214 17.7 30.6 0.00 0.00 0.00 44 1011.1
20260505200904 18 237 27.4 33.8 0.00 0.00 0.00 41 1011.1
20260505200401 18 223 16.1 27.4 0.00 0.00 0.00 42 1011.2
20260505195856 18 234 24.1 29.0 0.00 0.00 0.00 42 1011.4
20260505195354 17 245 14.5 25.7 0.00 0.00 0.00 43 1011.4
20260505194850 17 254 12.9 30.6 0.00 0.00 0.00 43 1011.4
20260505194348 17 257 14.5 24.1 0.00 0.00 0.00 43 1011.8
20260505193848 17 238 11.3 19.3 0.00 0.00 0.00 43 1011.9
20260505193347 16 227 20.9 27.4 0.00 0.00 0.00 46 1012.1
20260505192844 16 254 14.5 32.2 0.00 0.00 0.00 47 1011.6
20260505192342 16 232 14.5 17.7 0.00 0.00 0.00 46 1011.7
20260505191839 15 228 16.1 25.7 0.00 0.00 0.00 48 1011.8
20260505191338 16 244 14.5 22.5 0.00 0.00 0.00 46 1011.9
20260505190834 16 217 12.9 14.5 0.00 0.00 0.00 47 1011.9
20260505190330 16 247 14.5 22.5 0.00 0.00 0.00 47 1011.8
20260505185825 16 223 11.3 19.3 0.00 0.00 0.00 46 1011.8
20260505185322 15 242 8.0 17.7 0.00 0.00 0.00 47 1011.9
20260505184818 15 251 9.7 25.7 0.00 0.00 0.00 48 1011.9
20260505184315 16 224 27.4 35.4 0.00 0.00 0.00 46 1011.9
20260505183813 16 252 12.9 24.1 0.00 0.00 0.00 46 1011.9
20260505183309 15 245 12.9 24.1 0.00 0.00 0.00 48 1011.8
20260505182806 15 224 14.5 24.1 0.00 0.00 0.00 49 1012.1
20260505182305 16 199 6.4 25.7 0.00 0.00 0.00 47 1011.9
20260505181759 16 234 22.5 29.0 0.00 0.00 0.00 48 1011.7
20260505181257 15 239 20.9 30.6 0.00 0.00 0.00 50 1011.7
20260505180753 15 230 16.1 29.0 0.00 0.00 0.00 51 1011.9
20260505180250 15 252 12.9 24.1 0.00 0.00 0.00 51 1011.6
20260505175746 15 226 22.5 30.6 0.00 0.00 0.00 52 1011.9
20260505175243 15 239 27.4 30.6 0.00 0.00 0.00 51 1012.0
20260505174739 15 221 6.4 20.9 0.00 0.00 0.00 49 1011.6
20260505174237 16 229 25.7 27.4 0.00 0.00 0.00 48 1011.9
20260505173732 15 232 8.0 22.5 0.00 0.00 0.00 49 1011.4
20260505173229 15 223 14.5 25.7 0.00 0.00 0.00 51 1011.6
20260505172726 15 237 20.9 25.7 0.00 0.00 0.00 51 1011.7
20260505172223 14 238 22.5 29.0 0.00 0.00 0.00 53 1011.6
20260505171723 14 229 20.9 24.1 0.00 0.00 0.00 53 1011.8
20260505171221 13 217 14.5 24.1 0.00 0.00 0.00 56 1011.8
20260505170717 14 236 14.5 22.5 0.00 0.00 0.00 53 1011.8
20260505170214 13 237 12.9 24.1 0.00 0.00 0.00 55 1011.8
20260505165709 15 223 16.1 19.3 0.00 0.00 0.00 52 1011.6
20260505165206 13 232 20.9 24.1 0.00 0.00 0.00 55 1011.7
20260505164701 13 248 12.9 22.5 0.00 0.00 0.00 57 1011.8
20260505164158 13 228 14.5 24.1 0.00 0.00 0.00 56 1011.6
20260505163657 13 253 11.3 25.7 0.00 0.00 0.00 55 1011.7
20260505163155 13 247 12.9 22.5 0.00 0.00 0.00 53 1011.6
20260505162652 13 258 11.3 17.7 0.00 0.00 0.00 55 1011.6
20260505162149 13 236 12.9 17.7 0.00 0.00 0.00 56 1011.9
20260505161646 13 231 16.1 17.7 0.00 0.00 0.00 55 1011.7
20260505161143 13 255 17.7 25.7 0.00 0.00 0.00 56 1011.6
20260505160641 13 243 9.7 24.1 0.00 0.00 0.00 56 1011.7
20260505160138 13 236 11.3 24.1 0.00 0.00 0.00 56 1011.6
20260505153118 12 242 11.3 20.9 0.00 0.00 0.00 57 1011.4
20260505152614 12 267 11.3 20.9 0.00 0.00 0.00 59 1011.6
20260505152110 12 255 11.3 22.5 0.00 0.00 0.00 58 1011.6
20260505151605 12 251 9.7 19.3 0.00 0.00 0.00 58 1011.4
20260505151103 12 264 11.3 20.9 0.00 0.00 0.00 59 1011.7
20260505150559 11 263 14.5 17.7 0.00 0.00 0.00 60 1011.8
20260505140525 10 238 11.3 17.7 0.00 0.00 0.00 66 1011.3
20260505124938 7 204 6.4 8.0 0.00 0.00 0.00 78 1010.6
20260505124435 7 202 4.8 8.0 0.00 0.00 0.00 77 1010.9
20260505123931 6 210 4.8 8.0 0.00 0.00 0.00 79 1010.6
20260505123427 6 230 4.8 4.8 0.00 0.00 0.00 78 1010.7
20260505122923 7 210 4.8 8.0 0.00 0.00 0.00 79 1010.6
20260505122421 6 216 4.8 8.0 0.00 0.00 0.00 80 1010.4
20260505121917 7 200 4.8 6.4 0.00 0.00 0.00 79 1010.5
20260505121415 7 183 4.8 4.8 0.00 0.00 0.00 79 1010.4
20260505120910 7 180 4.8 8.0 0.00 0.00 0.00 79 1010.5
20260505120407 7 208 6.4 6.4 0.00 0.00 0.00 78 1010.3
20260505115906 7 224 4.8 8.0 0.00 0.00 0.00 77 1010.6
20260505115403 7 228 6.4 6.4 0.00 0.00 0.00 77 1010.5
20260505114901 7 209 4.8 4.8 0.00 0.00 0.00 77 1010.7
20260505114357 7 156 3.2 4.8 0.00 0.00 0.00 74 1010.4
20260505113853 8 133 1.6 4.8 0.00 0.00 0.00 72 1010.5
20260505113350 8 208 4.8 6.4 0.00 0.00 0.00 71 1010.5
20260505112845 8 226 6.4 9.7 0.00 0.00 0.00 70 1010.5
20260505112344 8 231 8.0 14.5 0.00 0.00 0.00 69 1010.5
20260505111839 8 229 6.4 12.9 0.00 0.00 0.00 69 1010.4
20260505111334 8 264 9.7 12.9 0.00 0.00 0.00 70 1010.3
20260505110830 8 250 4.8 17.7 0.00 0.00 0.00 69 1010.3
20260505110328 8 221 6.4 11.3 0.00 0.00 0.00 71 1010.6
20260505101803 7 197 4.8 4.8 0.00 0.00 0.00 77 1010.0
20260505101258 8 207 4.8 8.0 0.00 0.00 0.00 77 1010.2
20260505100754 8 190 4.8 8.0 0.00 0.00 0.00 76 1010.0
20260505100251 8 188 6.4 8.0 0.00 0.00 0.00 76 1009.9
20260505095747 8 201 6.4 9.7 0.00 0.00 0.00 76 1010.0
20260505095245 8 182 4.8 8.0 0.00 0.00 0.00 76 1009.9
20260505094740 8 218 4.8 6.4 0.00 0.00 0.00 75 1010.3
20260505094237 8 191 3.2 6.4 0.00 0.00 0.00 74 1010.3
20260505093733 8 208 6.4 11.3 0.00 0.00 0.00 73 1010.3
20260505093231 8 216 6.4 11.3 0.00 0.00 0.00 72 1010.3
20260505092728 8 240 8.0 14.5 0.00 0.00 0.00 72 1010.3